DAL1031 KATL-KDTW

Flight info

Callsign DAL1031
Flight time 1h 31m
Altitude 35000
Route PADGT2 SMTTH Q67 HNN SUBWY CRAKN2
Aircraft A21N/M-SDE2E3FGHIRWXY/LB1

Departure

Time 2026-05-06 00:34
Airport Hartsfield Jackson Atlanta International Airport (KATL)

Arrival

Time 2026-05-06 02:05
Airport Detroit Metropolitan Wayne County Airport (KDTW)
Time Latitude Longitude Altitude Speed Heading
2026-05-06 00:06 33.63928 -84.42879 1012 ft 0 kts 293°
2026-05-06 00:20 33.63927 -84.42876 1012 ft 3 kts 292°
2026-05-06 00:21 33.63919 -84.42852 1012 ft 4 kts 281°
2026-05-06 00:21 33.63920 -84.42823 1012 ft 4 kts 243°
2026-05-06 00:21 33.63935 -84.42806 1012 ft 3 kts 182°
2026-05-06 00:21 33.63938 -84.42806 1012 ft 0 kts 180°
2026-05-06 00:25 33.63937 -84.42806 1012 ft 1 kts 180°
2026-05-06 00:25 33.63928 -84.42806 1012 ft 3 kts 181°
2026-05-06 00:25 33.63894 -84.42806 1012 ft 7 kts 181°
2026-05-06 00:26 33.63836 -84.42808 1012 ft 10 kts 179°
2026-05-06 00:26 33.63752 -84.42807 1012 ft 14 kts 180°
2026-05-06 00:26 33.63661 -84.42767 1012 ft 15 kts 109°
2026-05-06 00:26 33.63654 -84.42626 1012 ft 19 kts 89°
2026-05-06 00:27 33.63654 -84.42454 1012 ft 22 kts 91°
2026-05-06 00:27 33.63655 -84.42297 1012 ft 18 kts 89°
2026-05-06 00:27 33.63645 -84.42185 1012 ft 10 kts 113°
2026-05-06 00:27 33.63604 -84.42096 1012 ft 14 kts 119°
2026-05-06 00:28 33.63581 -84.41964 1012 ft 18 kts 90°
2026-05-06 00:28 33.63581 -84.41794 1011 ft 22 kts 89°
2026-05-06 00:28 33.63581 -84.41607 1011 ft 19 kts 90°
2026-05-06 00:28 33.63580 -84.41435 1011 ft 23 kts 90°
2026-05-06 00:29 33.63581 -84.41268 1011 ft 10 kts 90°
2026-05-06 00:29 33.63581 -84.41260 1011 ft 0 kts 90°
2026-05-06 00:32 33.63581 -84.41257 1011 ft 4 kts 90°
2026-05-06 00:32 33.63582 -84.41170 1011 ft 17 kts 90°
2026-05-06 00:32 33.63583 -84.40988 1011 ft 22 kts 88°
2026-05-06 00:33 33.63541 -84.40908 1012 ft 13 kts 169°
2026-05-06 00:33 33.63471 -84.40956 1012 ft 14 kts 262°
2026-05-06 00:33 33.63471 -84.41179 1010 ft 62 kts 269°
2026-05-06 00:33 33.63467 -84.42087 1012 ft 153 kts 269°
2026-05-06 00:34 33.63486 -84.43604 1453 ft 203 kts 270°
2026-05-06 00:34 33.63497 -84.45473 2276 ft 247 kts 266°
2026-05-06 00:34 33.63473 -84.47566 3052 ft 255 kts 265°
2026-05-06 00:34 33.63491 -84.49721 3824 ft 261 kts 270°
2026-05-06 00:35 33.63996 -84.51842 4621 ft 272 kts 297°
2026-05-06 00:35 33.65221 -84.53606 5444 ft 278 kts 311°
2026-05-06 00:35 33.66614 -84.55202 6362 ft 276 kts 311°
2026-05-06 00:35 33.68014 -84.56778 7237 ft 275 kts 313°
2026-05-06 00:36 33.69646 -84.58011 8056 ft 284 kts 335°
2026-05-06 00:36 33.71624 -84.58377 8860 ft 293 kts 354°
2026-05-06 00:36 33.73674 -84.58311 9676 ft 295 kts 356°
2026-05-06 00:36 33.75730 -84.58231 10386 ft 296 kts 355°
2026-05-06 00:37 33.77793 -84.58175 11078 ft 297 kts 355°
2026-05-06 00:37 33.79865 -84.58131 11773 ft 299 kts 355°
2026-05-06 00:37 33.81950 -84.57846 12409 ft 310 kts
2026-05-06 00:37 33.84089 -84.57111 12751 ft 328 kts 12°
2026-05-06 00:38 33.86316 -84.56259 13061 ft 342 kts 12°
2026-05-06 00:38 33.88605 -84.55382 13644 ft 348 kts 12°
2026-05-06 00:38 33.90923 -84.54509 14279 ft 350 kts 12°
2026-05-06 00:38 33.93257 -84.53635 14902 ft 352 kts 11°
2026-05-06 00:39 33.95612 -84.52762 15520 ft 355 kts 11°
2026-05-06 00:39 33.97984 -84.51886 16118 ft 358 kts 11°
2026-05-06 00:39 34.00384 -84.51001 16746 ft 362 kts 11°
2026-05-06 00:39 34.02801 -84.50112 17348 ft 365 kts 11°
2026-05-06 00:40 34.05239 -84.49212 17939 ft 368 kts 11°
2026-05-06 00:40 34.07698 -84.48294 18480 ft 372 kts 11°
2026-05-06 00:40 34.10176 -84.47361 18982 ft 375 kts 11°
2026-05-06 00:40 34.12681 -84.46417 19429 ft 379 kts 12°
2026-05-06 00:41 34.15215 -84.45468 19903 ft 382 kts 11°
2026-05-06 00:41 34.17769 -84.44531 20384 ft 385 kts 11°
2026-05-06 00:41 34.20340 -84.43593 20859 ft 388 kts 11°
2026-05-06 00:41 34.22939 -84.42639 21331 ft 391 kts 11°
2026-05-06 00:42 34.25547 -84.41677 21797 ft 394 kts 11°
2026-05-06 00:42 34.28185 -84.40693 22267 ft 397 kts 11°
2026-05-06 00:42 34.30850 -84.39850 22722 ft 396 kts
2026-05-06 00:42 34.33560 -84.39180 23166 ft 399 kts
2026-05-06 00:43 34.36292 -84.38520 23617 ft 402 kts
2026-05-06 00:43 34.39051 -84.37869 23978 ft 405 kts
2026-05-06 00:43 34.41819 -84.37210 24352 ft 406 kts
2026-05-06 00:43 34.44599 -84.36535 24764 ft 408 kts
2026-05-06 00:44 34.47381 -84.35858 25173 ft 409 kts
2026-05-06 00:44 34.50176 -84.35185 25574 ft 410 kts
2026-05-06 00:44 34.52982 -84.34520 25979 ft 411 kts
2026-05-06 00:44 34.55784 -84.33848 26367 ft 412 kts
2026-05-06 00:45 34.58604 -84.33166 26728 ft 413 kts
2026-05-06 00:45 34.61420 -84.32475 27100 ft 415 kts
2026-05-06 00:45 34.64265 -84.31785 27417 ft 417 kts
2026-05-06 00:45 34.67120 -84.31099 27749 ft 419 kts
2026-05-06 00:46 34.69983 -84.30408 28108 ft 421 kts
2026-05-06 00:46 34.72859 -84.29711 28446 ft 422 kts
2026-05-06 00:46 34.75736 -84.29011 28785 ft 423 kts
2026-05-06 00:46 34.78588 -84.28317 29120 ft 423 kts
2026-05-06 00:47 34.81507 -84.27611 29453 ft 424 kts
2026-05-06 00:47 34.84406 -84.26908 29755 ft 425 kts
2026-05-06 00:47 34.87312 -84.26203 30061 ft 427 kts
2026-05-06 00:47 34.90237 -84.25496 30238 ft 430 kts
2026-05-06 00:48 34.93180 -84.24779 30471 ft 432 kts
2026-05-06 00:48 34.96128 -84.24060 30734 ft 432 kts
2026-05-06 00:48 34.99081 -84.23336 31011 ft 432 kts
2026-05-06 00:48 35.01991 -84.22624 31291 ft 432 kts
2026-05-06 00:49 35.04941 -84.21901 31565 ft 432 kts
2026-05-06 00:49 35.07879 -84.21182 31913 ft 430 kts
2026-05-06 00:49 35.10805 -84.20465 32272 ft 427 kts
2026-05-06 00:49 35.13699 -84.19753 32618 ft 424 kts
2026-05-06 00:50 35.16585 -84.19045 32966 ft 422 kts 360°
2026-05-06 00:50 35.19451 -84.18341 33291 ft 419 kts 359°
2026-05-06 00:50 35.22300 -84.17640 33625 ft 416 kts 359°
2026-05-06 00:50 35.25133 -84.16947 33933 ft 413 kts 359°
2026-05-06 00:51 35.27949 -84.16255 34186 ft 411 kts 359°
2026-05-06 00:51 35.29800 -84.15796 34318 ft 411 kts 359°
2026-05-06 00:51 35.33547 -84.14872 34557 ft 410 kts 359°
2026-05-06 00:51 35.36341 -84.14187 34775 ft 410 kts 359°
2026-05-06 00:52 35.39137 -84.13501 34922 ft 410 kts 358°
2026-05-06 00:52 35.44726 -84.12119 34988 ft 409 kts 359°
2026-05-06 00:53 35.50295 -84.10742 34950 ft 408 kts 358°
2026-05-06 00:53 35.55865 -84.09365 34943 ft 408 kts 358°
2026-05-06 00:54 35.61428 -84.07986 34968 ft 408 kts 359°
2026-05-06 00:54 35.67012 -84.06600 34940 ft 410 kts 359°
2026-05-06 00:55 35.72609 -84.05205 34932 ft 410 kts 359°
2026-05-06 00:55 35.78206 -84.03810 34932 ft 410 kts 359°
2026-05-06 00:56 35.83799 -84.02417 34930 ft 410 kts 359°
2026-05-06 00:56 35.89406 -84.00992 34918 ft 414 kts
2026-05-06 00:56 35.92182 -83.99820 34915 ft 433 kts 12°
2026-05-06 00:57 35.94875 -83.98039 34921 ft 442 kts 17°
2026-05-06 00:57 36.00185 -83.94165 34920 ft 443 kts 18°
2026-05-06 00:58 36.05501 -83.90320 34918 ft 442 kts 17°
2026-05-06 00:58 36.10772 -83.86544 34932 ft 441 kts 17°
2026-05-06 00:59 36.16103 -83.82736 34918 ft 443 kts 18°
2026-05-06 00:59 36.21437 -83.78906 34917 ft 443 kts 18°
2026-05-06 01:00 36.26775 -83.75088 34911 ft 444 kts 18°
2026-05-06 01:00 36.32120 -83.71235 34909 ft 444 kts 18°
2026-05-06 01:01 36.37466 -83.67388 34922 ft 446 kts 18°
2026-05-06 01:01 36.42840 -83.63507 34909 ft 447 kts 18°
2026-05-06 01:02 36.48215 -83.59628 34907 ft 447 kts 18°
2026-05-06 01:02 36.53592 -83.55739 34907 ft 447 kts 18°
2026-05-06 01:03 36.58959 -83.51836 34931 ft 446 kts 18°
2026-05-06 01:03 36.64302 -83.47960 34914 ft 444 kts 18°
2026-05-06 01:04 36.69646 -83.44074 34892 ft 445 kts 18°
2026-05-06 01:04 36.74997 -83.40172 34911 ft 445 kts 18°
2026-05-06 01:05 36.80332 -83.36262 34891 ft 445 kts 18°
2026-05-06 01:05 36.85679 -83.32337 34899 ft 447 kts 18°
2026-05-06 01:06 36.91031 -83.28406 34893 ft 446 kts 18°
2026-05-06 01:06 36.96394 -83.24457 34892 ft 447 kts 18°
2026-05-06 01:07 37.01748 -83.20507 34892 ft 447 kts 18°
2026-05-06 01:07 37.07111 -83.16565 34906 ft 447 kts 18°
2026-05-06 01:08 37.11549 -83.13273 34890 ft 445 kts 18°
2026-05-06 01:08 37.17742 -83.08682 34882 ft 445 kts 18°
2026-05-06 01:09 37.22216 -83.05371 34879 ft 445 kts 18°
2026-05-06 01:09 37.27589 -83.01538 34908 ft 441 kts 15°
2026-05-06 01:10 37.32997 -82.98023 34890 ft 441 kts 15°
2026-05-06 01:10 37.38434 -82.94464 34888 ft 441 kts 15°
2026-05-06 01:11 37.43866 -82.90881 34878 ft 441 kts 15°
2026-05-06 01:11 37.49303 -82.87302 34881 ft 440 kts 15°
2026-05-06 01:12 37.54754 -82.83707 34903 ft 444 kts 15°
2026-05-06 01:12 37.60237 -82.80099 34900 ft 445 kts 15°
2026-05-06 01:13 37.65742 -82.76450 34899 ft 447 kts 15°
2026-05-06 01:13 37.71246 -82.72812 34897 ft 446 kts 15°
2026-05-06 01:14 37.79505 -82.67329 34903 ft 447 kts 15°
2026-05-06 01:14 37.85017 -82.63660 34899 ft 448 kts 15°
2026-05-06 01:15 37.90528 -82.59984 34893 ft 448 kts 15°
2026-05-06 01:15 37.96042 -82.56305 34921 ft 448 kts 15°
2026-05-06 01:16 38.01564 -82.52615 34888 ft 449 kts 15°
2026-05-06 01:16 38.07095 -82.48902 34880 ft 450 kts 15°
2026-05-06 01:17 38.12602 -82.45224 34875 ft 450 kts 15°
2026-05-06 01:17 38.18126 -82.41499 34869 ft 449 kts 15°
2026-05-06 01:18 38.23640 -82.37768 34865 ft 448 kts 15°
2026-05-06 01:18 38.29127 -82.34058 34865 ft 446 kts 15°
2026-05-06 01:19 38.34600 -82.30350 34869 ft 446 kts 15°
2026-05-06 01:19 38.40086 -82.26629 34893 ft 446 kts 15°
2026-05-06 01:20 38.45586 -82.22943 34865 ft 447 kts 15°
2026-05-06 01:20 38.51085 -82.19203 34860 ft 448 kts 15°
2026-05-06 01:21 38.56590 -82.15461 34859 ft 451 kts 15°
2026-05-06 01:21 38.62175 -82.11668 34858 ft 457 kts 15°
2026-05-06 01:22 38.67792 -82.07818 34865 ft 459 kts 15°
2026-05-06 01:22 38.73457 -82.04159 34853 ft 445 kts
2026-05-06 01:23 38.76377 -82.03214 34854 ft 423 kts 354°
2026-05-06 01:23 38.79240 -82.03137 34858 ft 404 kts 343°
2026-05-06 01:23 38.84762 -82.04047 34858 ft 400 kts 341°
2026-05-06 01:24 38.90288 -82.04964 34864 ft 401 kts 341°
2026-05-06 01:24 38.95839 -82.05855 34860 ft 405 kts 341°
2026-05-06 01:25 39.01460 -82.06744 34855 ft 408 kts 341°
2026-05-06 01:25 39.07095 -82.07623 34846 ft 408 kts 341°
2026-05-06 01:26 39.12731 -82.08518 34852 ft 408 kts 341°
2026-05-06 01:26 39.18364 -82.09412 34841 ft 408 kts 341°
2026-05-06 01:27 39.24004 -82.10312 34841 ft 409 kts 341°
2026-05-06 01:27 39.29646 -82.11212 34839 ft 408 kts 341°
2026-05-06 01:28 39.35247 -82.12103 34864 ft 408 kts 341°
2026-05-06 01:28 39.40892 -82.13001 34851 ft 409 kts 341°
2026-05-06 01:29 39.46534 -82.13898 34855 ft 408 kts 341°
2026-05-06 01:29 39.52180 -82.14795 34837 ft 409 kts 341°
2026-05-06 01:30 39.57821 -82.15695 34847 ft 408 kts 341°
2026-05-06 01:30 39.63463 -82.16603 34840 ft 408 kts 341°
2026-05-06 01:31 39.69098 -82.17506 34836 ft 408 kts 341°
2026-05-06 01:31 39.74738 -82.18416 34836 ft 408 kts 341°
2026-05-06 01:32 39.80367 -82.19326 34848 ft 408 kts 341°
2026-05-06 01:32 39.86004 -82.20239 34831 ft 408 kts 341°
2026-05-06 01:33 39.91625 -82.21178 34830 ft 407 kts 341°
2026-05-06 01:33 39.97251 -82.22112 34832 ft 408 kts 341°
2026-05-06 01:34 40.02889 -82.23011 34851 ft 408 kts 341°
2026-05-06 01:34 40.08521 -82.23913 34819 ft 408 kts 341°
2026-05-06 01:35 40.14152 -82.24809 34817 ft 407 kts 341°
2026-05-06 01:35 40.19772 -82.25723 34817 ft 407 kts 341°
2026-05-06 01:36 40.25405 -82.26647 34840 ft 407 kts 341°
2026-05-06 01:36 40.31014 -82.27574 34825 ft 406 kts 341°
2026-05-06 01:37 40.36633 -82.28512 34823 ft 407 kts 341°
2026-05-06 01:37 40.42252 -82.29439 34820 ft 407 kts 341°
2026-05-06 01:38 40.47877 -82.30377 34819 ft 406 kts 340°
2026-05-06 01:38 40.50598 -82.31150 34829 ft 395 kts 333°
2026-05-06 01:38 40.53181 -82.32193 34831 ft 393 kts 332°
2026-05-06 01:39 40.58379 -82.34391 34828 ft 392 kts 332°
2026-05-06 01:39 40.63586 -82.36579 34828 ft 393 kts 332°
2026-05-06 01:40 40.68792 -82.38756 34859 ft 392 kts 332°
2026-05-06 01:40 40.71382 -82.39833 34580 ft 389 kts 332°
2026-05-06 01:40 40.73969 -82.40915 34336 ft 391 kts 331°
2026-05-06 01:41 40.76566 -82.42001 34093 ft 391 kts 331°
2026-05-06 01:41 40.79147 -82.43085 33623 ft 387 kts 331°
2026-05-06 01:41 40.81691 -82.44151 33052 ft 383 kts 331°
2026-05-06 01:41 40.84232 -82.45213 32508 ft 381 kts 332°
2026-05-06 01:42 40.86767 -82.46282 31956 ft 385 kts 332°
2026-05-06 01:42 40.89340 -82.47377 31410 ft 393 kts 332°
2026-05-06 01:42 40.91971 -82.48491 30828 ft 401 kts 333°
2026-05-06 01:42 40.94711 -82.49649 30270 ft 419 kts 334°
2026-05-06 01:43 40.97509 -82.50829 29960 ft 435 kts 334°
2026-05-06 01:43 41.00434 -82.52063 29874 ft 446 kts 334°
2026-05-06 01:43 41.06402 -82.54563 29865 ft 451 kts 334°
2026-05-06 01:44 41.12238 -82.57076 29890 ft 424 kts 333°
2026-05-06 01:44 41.17751 -82.59545 29164 ft 417 kts 332°
2026-05-06 01:45 41.20518 -82.60787 28070 ft 422 kts 333°
2026-05-06 01:45 41.23319 -82.62044 26983 ft 428 kts 333°
2026-05-06 01:45 41.26148 -82.63304 26208 ft 427 kts 334°
2026-05-06 01:45 41.28925 -82.64602 25537 ft 419 kts 329°
2026-05-06 01:46 41.31473 -82.66338 24975 ft 405 kts 323°
2026-05-06 01:46 41.33882 -82.68185 24680 ft 393 kts 322°
2026-05-06 01:46 41.36207 -82.69982 24286 ft 384 kts 322°
2026-05-06 01:46 41.38509 -82.71771 23677 ft 382 kts 322°
2026-05-06 01:47 41.40790 -82.73566 22976 ft 381 kts 322°
2026-05-06 01:47 41.43077 -82.75334 22287 ft 379 kts 322°
2026-05-06 01:47 41.45361 -82.77085 21615 ft 378 kts 322°
2026-05-06 01:47 41.47623 -82.78821 21124 ft 373 kts 322°
2026-05-06 01:48 41.49853 -82.80537 20710 ft 367 kts 322°
2026-05-06 01:48 41.52042 -82.82224 20364 ft 360 kts 322°
2026-05-06 01:48 41.53469 -82.83325 20132 ft 356 kts 322°
2026-05-06 01:48 41.56270 -82.85493 19742 ft 349 kts 321°
2026-05-06 01:49 41.58407 -82.87155 19411 ft 351 kts 321°
2026-05-06 01:49 41.60519 -82.88799 19095 ft 351 kts 321°
2026-05-06 01:49 41.62516 -82.90351 18793 ft 351 kts 321°
2026-05-06 01:49 41.64625 -82.91993 18472 ft 351 kts 321°
2026-05-06 01:50 41.66789 -82.93705 18147 ft 371 kts 320°
2026-05-06 01:50 41.68824 -82.95781 17825 ft 365 kts 312°
2026-05-06 01:50 41.70741 -82.97983 17505 ft 362 kts 311°
2026-05-06 01:50 41.72637 -83.00184 17186 ft 360 kts 311°
2026-05-06 01:51 41.74528 -83.02374 16862 ft 359 kts 311°
2026-05-06 01:51 41.76407 -83.04549 16535 ft 357 kts 311°
2026-05-06 01:51 41.78280 -83.06714 16233 ft 354 kts 311°
2026-05-06 01:51 41.80134 -83.08854 15900 ft 349 kts 311°
2026-05-06 01:52 41.81964 -83.10968 15460 ft 345 kts 311°
2026-05-06 01:52 41.83771 -83.13059 14924 ft 342 kts 312°
2026-05-06 01:52 41.85565 -83.15136 14398 ft 339 kts 312°
2026-05-06 01:52 41.87365 -83.17173 13910 ft 337 kts 313°
2026-05-06 01:53 41.89162 -83.19169 13426 ft 333 kts 313°
2026-05-06 01:53 41.90910 -83.21116 12885 ft 330 kts 314°
2026-05-06 01:53 41.92666 -83.23075 12348 ft 327 kts 314°
2026-05-06 01:53 41.94408 -83.25023 11807 ft 325 kts 314°
2026-05-06 01:54 41.96134 -83.26956 11330 ft 321 kts 314°
2026-05-06 01:54 41.97821 -83.28844 11047 ft 310 kts 314°
2026-05-06 01:54 41.99443 -83.30659 10757 ft 296 kts 314°
2026-05-06 01:54 42.01065 -83.32280 10506 ft 289 kts 325°
2026-05-06 01:55 42.02983 -83.33109 10143 ft 296 kts 350°
2026-05-06 01:55 42.05048 -83.32748 9757 ft 306 kts 17°
2026-05-06 01:55 42.06944 -83.31412 9355 ft 308 kts 28°
2026-05-06 01:55 42.08744 -83.29880 8943 ft 306 kts 29°
2026-05-06 01:56 42.10544 -83.28375 8532 ft 303 kts 28°
2026-05-06 01:56 42.12345 -83.26918 8127 ft 301 kts 27°
2026-05-06 01:56 42.14140 -83.25486 7695 ft 298 kts 27°
2026-05-06 01:56 42.15907 -83.24062 7225 ft 295 kts 27°
2026-05-06 01:57 42.17657 -83.22649 6759 ft 292 kts 27°
2026-05-06 01:57 42.19395 -83.21264 6290 ft 288 kts 27°
2026-05-06 01:57 42.21109 -83.19900 5814 ft 284 kts 27°
2026-05-06 01:57 42.22796 -83.18564 5348 ft 278 kts 28°
2026-05-06 01:58 42.24461 -83.17294 4911 ft 272 kts 26°
2026-05-06 01:58 42.26112 -83.16090 4464 ft 266 kts 27°
2026-05-06 01:58 42.27728 -83.14914 4021 ft 261 kts 26°
2026-05-06 01:58 42.29331 -83.13744 3588 ft 257 kts 26°
2026-05-06 01:59 42.30880 -83.12608 3186 ft 256 kts 26°
2026-05-06 01:59 42.32434 -83.11508 2983 ft 245 kts 18°
2026-05-06 01:59 42.34025 -83.11227 2953 ft 221 kts 348°
2026-05-06 01:59 42.35344 -83.12010 2953 ft 204 kts 317°
2026-05-06 02:00 42.36139 -83.13587 2976 ft 205 kts 295°
2026-05-06 02:00 42.36665 -83.15332 3051 ft 196 kts 292°
2026-05-06 02:00 42.37117 -83.17063 3030 ft 196 kts 283°
2026-05-06 02:00 42.37103 -83.18314 3011 ft 200 kts 261°
2026-05-06 02:01 42.36501 -83.20667 3011 ft 200 kts 252°
2026-05-06 02:01 42.36173 -83.21838 3005 ft 201 kts 251°
2026-05-06 02:01 42.35339 -83.23356 3043 ft 204 kts 225°
2026-05-06 02:01 42.34235 -83.24358 3045 ft 181 kts 213°
2026-05-06 02:02 42.33134 -83.25149 3018 ft 178 kts 213°
2026-05-06 02:02 42.32065 -83.25936 2950 ft 167 kts 213°
2026-05-06 02:02 42.31070 -83.26673 2749 ft 162 kts 213°
2026-05-06 02:02 42.30083 -83.27405 2530 ft 161 kts 213°
2026-05-06 02:03 42.29099 -83.28134 2305 ft 162 kts 213°
2026-05-06 02:03 42.28112 -83.28865 2084 ft 161 kts 213°
2026-05-06 02:03 42.27131 -83.29591 1858 ft 160 kts 214°
2026-05-06 02:03 42.26151 -83.30321 1641 ft 160 kts 214°
2026-05-06 02:04 42.25224 -83.31021 1374 ft 148 kts 212°
2026-05-06 02:04 42.24317 -83.31672 1215 ft 147 kts 211°
2026-05-06 02:04 42.23429 -83.32323 1003 ft 143 kts 212°
2026-05-06 02:04 42.22566 -83.32967 825 ft 142 kts 211°
2026-05-06 02:05 42.21703 -83.33603 654 ft 137 kts 210°
2026-05-06 02:05 42.21064 -83.34076 653 ft 64 kts 208°
2026-05-06 02:05 42.20756 -83.34302 650 ft 49 kts 209°
2026-05-06 02:05 42.20569 -83.34553 652 ft 30 kts 234°
2026-05-06 02:06 42.20443 -83.34785 653 ft 32 kts 211°
2026-05-06 02:06 42.20247 -83.34928 655 ft 29 kts 210°
2026-05-06 02:06 42.20176 -83.35082 653 ft 20 kts 271°
2026-05-06 02:06 42.20175 -83.35279 653 ft 22 kts 268°
2026-05-06 02:07 42.20171 -83.35487 653 ft 23 kts 268°
2026-05-06 02:07 42.20166 -83.35702 652 ft 24 kts 268°
2026-05-06 02:07 42.20163 -83.35922 652 ft 11 kts 269°
2026-05-06 02:07 42.20195 -83.36015 652 ft 13 kts 345°
2026-05-06 02:08 42.20297 -83.35996 652 ft 17 kts 25°
2026-05-06 02:08 42.20414 -83.35909 651 ft 21 kts 28°
2026-05-06 02:08 42.20507 -83.35849 651 ft 14 kts
2026-05-06 02:08 42.20551 -83.35907 652 ft 5 kts 297°
2026-05-06 02:09 42.20560 -83.35930 653 ft 2 kts 298°
2026-05-06 02:09 42.20562 -83.35936 653 ft 0 kts 298°